TimeMDT,TemperatureF,Dew PointF,Humidity,Sea Level PressureIn,VisibilityMPH,Wind Direction,Wind SpeedMPH,Gust SpeedMPH,PrecipitationIn,Events,Conditions,WindDirDegrees,DateUTC
12:53 AM,43.0,28.0,56,30.06,10.0,Calm,Calm,-,N/A,,Clear,0,2013-04-04 06:53:00
1:53 AM,42.1,30.0,62,30.08,10.0,Calm,Calm,-,N/A,,Partly Cloudy,0,2013-04-04 07:53:00
2:53 AM,43.0,28.9,58,30.07,10.0,Calm,Calm,-,N/A,,Partly Cloudy,0,2013-04-04 08:53:00
3:53 AM,39.9,30.9,70,30.07,10.0,Calm,Calm,-,N/A,,Clear,0,2013-04-04 09:53:00
4:53 AM,41.0,30.9,67,30.07,10.0,Calm,Calm,-,N/A,,Clear,0,2013-04-04 10:53:00
5:53 AM,37.9,30.0,73,30.07,10.0,Calm,Calm,-,N/A,,Partly Cloudy,0,2013-04-04 11:53:00
6:53 AM,37.9,30.0,73,30.08,10.0,Calm,Calm,-,N/A,,Partly Cloudy,0,2013-04-04 12:53:00
7:53 AM,39.0,30.0,70,30.09,10.0,Calm,Calm,-,N/A,,Clear,0,2013-04-04 13:53:00
8:53 AM,41.0,30.0,65,30.09,10.0,Calm,Calm,-,N/A,,Clear,0,2013-04-04 14:53:00
9:53 AM,42.1,28.9,60,30.09,10.0,North,3.5,-,N/A,,Mostly Cloudy,350,2013-04-04 15:53:00
10:53 AM,46.0,28.9,51,30.07,10.0,Calm,Calm,-,N/A,,Clear,0,2013-04-04 16:53:00
11:53 AM,46.9,30.0,52,30.04,10.0,Calm,Calm,-,N/A,,Partly Cloudy,0,2013-04-04 17:53:00
12:53 PM,52.0,30.0,43,29.99,10.0,Calm,Calm,-,N/A,,Partly Cloudy,0,2013-04-04 18:53:00
1:53 PM,55.9,30.9,39,29.94,10.0,NE,4.6,-,N/A,,Clear,40,2013-04-04 19:53:00
2:53 PM,61.0,30.9,32,29.88,10.0,Calm,Calm,-,N/A,,Clear,0,2013-04-04 20:53:00
3:53 PM,64.0,28.9,27,29.85,10.0,Variable,5.8,-,N/A,,Overcast,0,2013-04-04 21:53:00
4:53 PM,64.9,30.9,28,29.83,10.0,WSW,11.5,17.3,N/A,,Overcast,240,2013-04-04 22:53:00
5:53 PM,62.1,34.0,35,29.83,10.0,SSW,18.4,25.3,N/A,,Mostly Cloudy,200,2013-04-04 23:53:00
6:53 PM,59.0,36.0,42,29.85,10.0,WSW,6.9,-,N/A,,Overcast,240,2013-04-05 00:53:00
7:53 PM,57.0,37.9,49,29.82,10.0,SSE,4.6,-,0.00,,Mostly Cloudy,160,2013-04-05 01:53:00
8:53 PM,57.0,37.0,47,29.80,10.0,Calm,Calm,-,N/A,,Overcast,0,2013-04-05 02:53:00
9:53 PM,55.0,39.0,55,29.79,10.0,SW,4.6,-,N/A,,Mostly Cloudy,220,2013-04-05 03:53:00
10:53 PM,53.1,37.0,55,29.78,10.0,NW,5.8,-,N/A,,Overcast,310,2013-04-05 04:53:00
11:53 PM,53.1,39.9,61,29.82,10.0,WNW,13.8,-,0.00,,Overcast,290,2013-04-05 05:53:00